Weather History for Menominee, MI

Change the Weather History Date:

Saturday, April 19, 2014

  Actual Average Record
Temperature  
Mean Temperature 37 °F -  
Max Temperature 48 °F 55 °F 79 °F (1952)
Min Temperature 26 °F 35 °F 20 °F (1974)
Degree Days  
Heating Degree Days 28    
Moisture  
Dew Point 29 °F    
Average Humidity 71    
Maximum Humidity 93    
Minimum Humidity 46    
Precipitation  
Precipitation 0.00 in - - ()
Sea Level Pressure  
Sea Level Pressure 30.34 in    
Wind  
Wind Speed 6 mph (SE)    
Max Wind Speed 16 mph    
Max Gust Speed 22 mph    
Visibility 10 miles    
Events      
Averages and records for this station are not official NWS values.
T = Trace of Precipitation, MM = Missing Value Source: NWS Daily Summary

Daily Weather History Graph

Daily Weather History Graph

Search for Another Location

Airport:

Trip Planner

Search our weather history database for the weather conditions in past years. The results will help you decide how hot, cold, wet, or windy it might be!

Date:

Astronomy

Apr. 19, 2014 Rise Set
Actual Time 5:58 AM CDT 7:41 PM CDT
Civil Twilight 5:27 AM CDT 8:12 PM CDT
Nautical Twilight 4:49 AM CDT 8:50 PM CDT
Astronomical Twilight 4:08 AM CDT 9:31 PM CDT
Moon No Moon Rise 9:10 AM CDT (4/19)
Length of Visible Light 14h 44m
Length of Day
13h 42m
Waning Gibbous, 78% of the Moon is Illuminated
Apr 19
Waning Gibbous
Apr 22
Last Quarter
Apr 29
New
May 6
First Quarter
May 14
Full

Hourly Weather History & Observations

Time (CDT) Temp. Windchill Dew Point Humidity Pressure Visibility Wind Dir Wind Speed Gust Speed Precip Events Conditions
12:15 AM 28.4 °F - 23.0 °F 80% 30.41 in 10.0 mi Calm Calm - N/A   Clear
12:35 AM 28.4 °F 22.2 °F 23.0 °F 80% 30.41 in 10.0 mi East 5.8 mph - N/A   Clear
12:55 AM 26.6 °F 19.1 °F 23.0 °F 86% 30.41 in 10.0 mi East 6.9 mph - N/A   Clear
1:15 AM 26.6 °F 20.0 °F 21.2 °F 80% 30.42 in 10.0 mi ENE 5.8 mph - N/A   Clear
1:35 AM 28.4 °F - 24.8 °F 86% 30.44 in 10.0 mi Calm Calm - N/A   Clear
1:55 AM 28.4 °F 24.6 °F 24.8 °F 86% 30.44 in 10.0 mi ENE 3.5 mph - N/A   Clear
2:15 AM 28.4 °F - 24.8 °F 86% 30.44 in 10.0 mi Calm Calm - N/A   Clear
2:35 AM 28.4 °F 23.3 °F 24.8 °F 86% 30.43 in 10.0 mi ENE 4.6 mph - N/A   Clear
2:55 AM 26.6 °F 21.2 °F 24.8 °F 93% 30.44 in 10.0 mi ENE 4.6 mph - N/A   Partly Cloudy
3:15 AM 28.4 °F 22.2 °F 26.6 °F 93% 30.43 in 10.0 mi East 5.8 mph - N/A   Clear
3:35 AM 28.4 °F - 24.8 °F 86% 30.44 in 10.0 mi Calm Calm - N/A   Clear
3:55 AM 28.4 °F - 24.8 °F 86% 30.45 in 10.0 mi Calm Calm - N/A   Clear
4:15 AM 28.4 °F - 24.8 °F 86% 30.45 in 10.0 mi Calm Calm - N/A   Clear
4:35 AM 28.4 °F - 26.6 °F 93% 30.46 in 10.0 mi Calm Calm - N/A   Clear
4:55 AM 28.4 °F 24.6 °F 26.6 °F 93% 30.45 in 10.0 mi ENE 3.5 mph - N/A   Partly Cloudy
5:15 AM 28.4 °F - 26.6 °F 93% 30.46 in 10.0 mi Calm Calm - N/A   Clear
5:35 AM 28.4 °F 24.6 °F 24.8 °F 86% 30.45 in 10.0 mi ENE 3.5 mph - N/A   Clear
5:55 AM 28.4 °F 23.3 °F 24.8 °F 86% 30.45 in 10.0 mi ENE 4.6 mph - N/A   Clear
6:15 AM 28.4 °F 24.6 °F 26.6 °F 93% 30.45 in 10.0 mi East 3.5 mph - N/A   Clear
6:35 AM 30.2 °F 24.3 °F 26.6 °F 86% 30.45 in 10.0 mi East 5.8 mph - N/A   Clear
6:55 AM 30.2 °F 23.4 °F 26.6 °F 86% 30.45 in 10.0 mi East 6.9 mph - N/A   Clear
7:15 AM 30.2 °F 23.4 °F 28.4 °F 93% 30.45 in 10.0 mi East 6.9 mph - N/A   Clear
7:35 AM 30.2 °F 24.3 °F 26.6 °F 86% 30.45 in 10.0 mi East 5.8 mph - N/A   Clear
7:55 AM 32.0 °F 25.6 °F 28.4 °F 87% 30.45 in 10.0 mi East 6.9 mph - N/A   Clear
8:15 AM 33.8 °F 27.0 °F 28.4 °F 81% 30.45 in 10.0 mi ESE 8.1 mph - N/A   Clear
8:35 AM 33.8 °F 27.0 °F 28.4 °F 81% 30.44 in 10.0 mi SE 8.1 mph - N/A   Clear
8:55 AM 33.8 °F 25.8 °F 28.4 °F 81% 30.43 in 10.0 mi ESE 10.4 mph - N/A   Clear
9:15 AM 33.8 °F 27.0 °F 28.4 °F 81% 30.42 in 10.0 mi SE 8.1 mph - N/A   Clear
9:35 AM 35.6 °F 29.2 °F 28.4 °F 75% 30.42 in 10.0 mi SE 8.1 mph - N/A   Clear
9:55 AM 35.6 °F 28.6 °F 30.2 °F 81% 30.42 in 10.0 mi SE 9.2 mph - N/A   Clear
10:15 AM 37.4 °F 31.4 °F 30.2 °F 75% 30.41 in 10.0 mi SSE 8.1 mph - N/A   Clear
10:35 AM 39.2 °F 30.8 °F 30.2 °F 70% 30.40 in 10.0 mi SSE 15.0 mph 19.6 mph N/A   Clear
10:55 AM 39.2 °F 31.2 °F 30.2 °F 70% 30.40 in 10.0 mi SSE 13.8 mph 20.7 mph N/A   Clear
11:15 AM 41.0 °F 33.9 °F 30.2 °F 65% 30.39 in 10.0 mi South 12.7 mph - N/A   Clear
11:35 AM 41.0 °F 33.5 °F 30.2 °F 65% 30.39 in 10.0 mi SSE 13.8 mph - N/A   Clear
11:55 AM 41.0 °F 34.7 °F 28.4 °F 61% 30.39 in 10.0 mi South 10.4 mph - N/A   Clear
12:15 PM 42.8 °F 36.6 °F 28.4 °F 57% 30.38 in 10.0 mi SSE 11.5 mph 17.3 mph N/A   Clear
12:35 PM 42.8 °F 37.5 °F 28.4 °F 57% 30.37 in 10.0 mi SSE 9.2 mph - N/A   Clear
12:55 PM 42.8 °F 37.0 °F 28.4 °F 57% 30.36 in 10.0 mi SE 10.4 mph - N/A   Clear
1:15 PM 42.8 °F 35.8 °F 28.4 °F 57% 30.35 in 10.0 mi ESE 13.8 mph - N/A   Clear
1:35 PM 42.8 °F 37.0 °F 28.4 °F 57% 30.34 in 10.0 mi ESE 10.4 mph - N/A   Clear
1:55 PM 42.8 °F 36.6 °F 28.4 °F 57% 30.34 in 10.0 mi ESE 11.5 mph - N/A   Clear
2:15 PM 42.8 °F 37.0 °F 28.4 °F 57% 30.32 in 10.0 mi SE 10.4 mph - N/A   Clear
2:35 PM 42.8 °F 37.0 °F 28.4 °F 57% 30.31 in 10.0 mi SE 10.4 mph - N/A   Clear
2:55 PM 42.8 °F 36.6 °F 28.4 °F 57% 30.30 in 10.0 mi SE 11.5 mph - N/A   Clear
3:15 PM 44.6 °F 39.2 °F 28.4 °F 53% 30.30 in 10.0 mi SE 10.4 mph - N/A   Clear
3:35 PM 44.6 °F 38.1 °F 28.4 °F 53% 30.29 in 10.0 mi SE 13.8 mph - N/A   Clear
3:55 PM 46.4 °F 40.7 °F 28.4 °F 50% 30.28 in 10.0 mi SSE 12.7 mph - N/A   Clear
4:15 PM 48.2 °F - 28.4 °F 46% 30.26 in 10.0 mi SSE 15.0 mph 21.9 mph N/A   Clear
4:35 PM 48.2 °F - 30.2 °F 50% 30.26 in 10.0 mi South 16.1 mph 20.7 mph N/A   Clear
4:55 PM 48.2 °F - 30.2 °F 50% 30.25 in 10.0 mi South 13.8 mph 19.6 mph N/A   Clear
5:15 PM 48.2 °F - 32.0 °F 54% 30.24 in 10.0 mi South 13.8 mph 18.4 mph N/A   Clear
5:35 PM 46.4 °F 40.7 °F 30.2 °F 53% 30.23 in 10.0 mi South 12.7 mph 17.3 mph N/A   Clear
5:55 PM 48.2 °F - 32.0 °F 54% 30.22 in 10.0 mi South 11.5 mph - N/A   Clear
6:15 PM 48.2 °F - 33.8 °F 58% 30.21 in 10.0 mi South 13.8 mph 19.6 mph N/A   Clear
6:35 PM 46.4 °F 40.4 °F 32.0 °F 57% 30.21 in 10.0 mi South 13.8 mph 17.3 mph N/A   Clear
6:55 PM 46.4 °F 41.5 °F 32.0 °F 57% 30.21 in 10.0 mi South 10.4 mph - N/A   Clear
7:15 PM 44.6 °F 39.2 °F 32.0 °F 61% 30.21 in 10.0 mi South 10.4 mph - N/A   Clear
7:35 PM 44.6 °F 40.2 °F 32.0 °F 61% 30.21 in 10.0 mi South 8.1 mph - N/A   Clear
7:55 PM 44.6 °F 39.7 °F 32.0 °F 61% 30.20 in 10.0 mi South 9.2 mph - N/A   Clear
8:15 PM 42.8 °F 39.3 °F 32.0 °F 66% 30.20 in 10.0 mi SSE 5.8 mph - N/A   Clear
8:35 PM 42.8 °F 39.3 °F 33.8 °F 70% 30.20 in 10.0 mi SSE 5.8 mph - N/A   Scattered Clouds
8:55 PM 42.8 °F 39.3 °F 32.0 °F 66% 30.20 in 10.0 mi SSE 5.8 mph - N/A   Overcast
9:15 PM 44.6 °F 40.2 °F 33.8 °F 66% 30.20 in 10.0 mi South 8.1 mph - N/A   Overcast
9:35 PM 44.6 °F 39.7 °F 33.8 °F 66% 30.19 in 10.0 mi South 9.2 mph - N/A   Overcast
9:55 PM 44.6 °F 41.4 °F 33.8 °F 66% 30.19 in 10.0 mi South 5.8 mph - N/A   Overcast
10:15 PM 44.6 °F 42.2 °F 33.8 °F 66% 30.18 in 10.0 mi South 4.6 mph - N/A   Overcast
10:35 PM 44.6 °F 40.2 °F 33.8 °F 66% 30.18 in 10.0 mi South 8.1 mph - N/A   Overcast
10:55 PM 44.6 °F 40.7 °F 33.8 °F 66% 30.18 in 10.0 mi South 6.9 mph - N/A   Mostly Cloudy
11:15 PM 44.6 °F 41.4 °F 32.0 °F 61% 30.17 in 10.0 mi South 5.8 mph - N/A   Mostly Cloudy
11:35 PM 44.6 °F 42.2 °F 33.8 °F 66% 30.17 in 10.0 mi SSE 4.6 mph - N/A   Overcast
11:55 PM 44.6 °F 41.4 °F 33.8 °F 66% 30.17 in 10.0 mi SE 5.8 mph - N/A   Overcast